Погода в Баучи

Нигерия     10°18′22″N   9°50′50″E
темп.,
°C
ветер,
м/с
пор.,
м/с
влажн.,
%
обл.,
%
осадки,
мм/ч
давл.,
гПа
погр.,
м
11 мая, вт
вт1101:00+24ююв3569100 0.0 1012235
04:00+24юз3772100 0.0 1011278
07:00+25зюз236420 0.0 1012109
10:00+32ю11365 0.0 1013905
13:00+36всв132520 0.0 10102270
16:00+37св24209 0.0 10073278
19:00+33юв3527100 0.0 1008210
22:00+32ююв483397 0.0 1011554
12 мая, ср
ср1201:00+29ю22480 0.0 101050
04:00+27ю345388 0.0 1010116
07:00+27юз23574 0.0 1011161
10:00+33юз11373 0.0 10121165
13:00+38вюв17235 0.0 10093355
16:00+37в641993 0.0 10053539
19:00+34юв3525100 0.1 1008219
22:00+32юв1232100 0.0 100980
13 мая, чт
чт1301:00+29ююв224095 0.0 100838
04:00+27ююз235690 0.0 100894
07:00+27юз365968 0.0 1010354
10:00+31ююз3443100 0.0 10111020
13:00+37ю232798 0.0 10072152
16:00+37вюв452184 0.0 10053425
19:00+34вюв4733100 0.0 1007474
22:00+30ююв4848100 0.0 1009464
14 мая, пт
пт1401:00+27ю486373 0.0 1009531
04:00+25ю376739 0.0 1009304
07:00+26ю256597 0.0 1010252
10:00+32юз3440100 0.0 1010805
13:00+35ююв3429100 0.0 10081979
16:00+37вюв3624100 0.0 10052495
19:00+33вюв223198 0.0 100619
22:00+31ююв253895 0.0 1009108
15 мая, сб
сб1501:00+28ююз1245100 0.0 100932
04:00+25ю4770100 1.0 1009328
07:00+26ююз4767100 1.0 1011344
10:00+32ююз454397 0.0 1011901
13:00+36ююв252854 0.0 10082529
16:00+36вюв6625100 0.0 10051930
19:00+33юв5933100 0.0 1007387
22:00+28всв3456100 1.5 1012223